Lid_Strength_Index
16 13 13 15 17 16 21 18 19 16 16 13 12 11 10 10 9 9 8 8 8 8 8 7 7 6 6 6 5 5 5 6 6 5 5 5 5 5 5 4 4 3 4 4
17 13 13 15 14 14 15 15 16 15 16 12 10 9 10 9 8 8 8 7 7 7 7 7 6 6 6 6 5 5 5 5 5 5 5 6 6 5 5 5 5 4 4 4
18 14 15 20 16 14 14 13 14 16 13 10 10 9 10 9 9 9 8 7 7 7 7 7 7 6 7 6 6 5 5 5 5 5 6 6 6 5 6 6 6 5 5 4
20 17 26 15 12 12 13 12 11 11 11 10 10 10 9 9 9 8 8 7 7 7 7 7 7 6 6 6 6 6 6 5 5 5 7 7 6 6 6 6 6 6 5 5
22 19 16 13 13 13 14 14 11 11 10 10 9 10 10 8 8 8 8 7 8 7 7 7 6 6 6 6 6 6 6 5 5 6 6 7 6 6 6 6 7 6 5 5
19 23 24 15 12 10 11 17 10 10 10 10 10 15 12 9 8 8 8 8 8 8 7 8 7 7 6 5 5 5 5 4 5 6 6 6 6 6 6 6 6 6 5 5
20 21 16 11 11 10 17 16 10 10 10 11 13 11 10 8 8 8 8 8 7 7 7 7 7 7 7 6 5 4 3 4 6 6 6 6 6 6 6 6 6 6 6 6
19 23 22 10 11 15 13 11 10 10 10 10 10 9 9 8 8 8 8 8 7 8 8 7 7 7 7 7 6 4 4 5 5 5 4 5 6 6 6 6 6 7 7 6
15 16 11 10 11 10 10 10 10 10 10 9 10 10 9 9 8 8 8 8 7 7 7 6 6 7 7 6 4 3 3 4 4 4 4 5 6 6 6 6 6 7 7 7
14 11 10 10 10 9 9 10 9 9 10 10 10 10 10 9 9 8 8 8 8 8 7 7 6 5 5 3 2 3 3 4 5 5 5 5 5 5 6 6 7 6 7 8
14 11 11 11 10 10 9 9 9 9 10 10 10 10 10 10 10 10 9 9 9 9 8 8 7 6 5 4 3 3 3 3 4 4 5 5 5 5 5 5 6 6 7 8
16 12 12 12 10 9 10 10 10 10 10 10 10 10 10 10 10 10 9 9 9 9 8 8 7 6 5 4 4 5 4 4 4 5 5 6 6 6 6 6 6 6 6 8
12 10 11 10 9 9 10 10 9 10 10 10 10 10 10 11 10 9 9 10 9 8 8 7 7 7 6 4 3 4 5 5 5 5 5 6 6 6 8 7 6 6 6 6
10 10 12 11 11 9 9 9 9 10 10 10 11 11 11 11 11 11 11 11 10 8 8 7 7 7 5 4 3 3 4 5 5 5 5 5 5 6 7 8 8 7 6 6
10 10 10 10 9 10 10 10 11 12 11 11 11 11 11 12 12 11 11 10 10 10 9 8 7 6 5 4 3 3 3 4 4 5 5 5 6 6 6 7 7 7 7 7
10 11 10 11 11 11 11 12 12 12 12 12 12 12 12 11 11 11 11 11 11 11 9 8 7 6 4 3 3 3 2 3 4 4 4 5 6 6 7 7 7 8 8 8
12 13 12 12 12 12 12 12 12 12 12 12 12 11 11 11 12 12 11 10 10 9 8 7 7 5 4 3 2 2 2 2 3 3 4 4 5 6 6 7 7 8 8 7
11 11 11 11 11 12 11 11 11 11 12 11 11 12 14 15 13 12 11 10 9 8 7 5 4 3 3 3 2 2 2 2 3 3 4 5 6 5 6 7 7 7 7 7
11 11 11 11 11 11 11 11 10 10 11 11 12 13 12 12 11 11 10 9 8 7 6 4 5 4 3 3 4 3 3 3 3 3 4 5 6 6 7 7 7 7 7 7
11 11 10 10 10 11 11 11 11 11 10 10 13 13 13 12 11 10 8 8 6 5 4 4 5 4 4 4 5 4 4 4 4 4 5 5 6 7 7 8 8 8 8 8
12 11 12 12 12 11 12 11 12 11 10 12 13 13 12 10 9 9 7 7 5 5 4 5 5 5 4 5 6 6 6 6 6 6 7 7 7 7 7 7 7 7 8 7
13 14 16 15 13 13 12 11 10 11 12 13 13 12 12 10 9 7 7 5 5 6 5 5 5 6 6 7 6 6 6 6 6 7 7 7 7 8 8 8 8 8 8 8
13 13 13 16 15 13 12 12 12 10 10 10 10 10 10 8 7 8 8 5 5 6 6 6 7 8 8 7 7 7 7 7 7 7 8 7 7 8 8 8 9 9 9 9
13 13 13 11 13 13 14 11 11 9 9 9 9 10 8 7 8 6 6 7 8 9 8 7 7 8 9 7 7 8 8 7 7 8 8 10 9 9 9 9 9 9 9 9
12 13 13 13 11 11 11 10 10 10 9 7 7 7 7 6 7 5 7 8 9 8 8 8 8 8 8 8 8 7 8 9 9 9 9 9 9 10 10 10 10 10 10 11
11 11 11 10 10 10 10 9 9 8 8 7 7 8 7 7 6 6 7 9 8 8 8 8 8 8 8 8 8 8 8 9 10 10 10 10 10 10 10 10 12 12 12 12
11 12 11 10 9 9 8 8 8 7 6 5 6 8 7 7 7 6 8 10 11 12 11 9 9 9 8 8 9 10 10 10 10 10 11 11 10 11 12 12 12 13 13 14